TimeEST,TemperatureF,Dew PointF,Humidity,Sea Level PressureIn,VisibilityMPH,Wind Direction,Wind SpeedMPH,Gust SpeedMPH,PrecipitationIn,Events,Conditions,WindDirDegrees,DateUTC
12:53 AM,28.9,19.0,67,30.15,10.0,Calm,Calm,-,N/A,,Overcast,0,2014-03-02 05:53:00
1:53 AM,28.9,21.9,75,30.13,7.0,Calm,Calm,-,N/A,,Overcast,0,2014-03-02 06:53:00
2:53 AM,30.9,21.9,69,30.10,10.0,ENE,3.5,-,N/A,,Overcast,70,2014-03-02 07:53:00
3:53 AM,30.0,23.0,75,30.07,9.0,ESE,5.8,-,N/A,,Overcast,120,2014-03-02 08:53:00
4:53 AM,30.9,24.1,76,30.07,8.0,Calm,Calm,-,N/A,,Overcast,0,2014-03-02 09:53:00
5:53 AM,30.9,23.0,72,30.07,8.0,North,3.5,-,N/A,,Overcast,360,2014-03-02 10:53:00
6:53 AM,32.0,23.0,69,30.06,8.0,Calm,Calm,-,N/A,,Overcast,0,2014-03-02 11:53:00
7:53 AM,32.0,23.0,69,30.08,6.0,Calm,Calm,-,N/A,,Haze,0,2014-03-02 12:53:00
8:53 AM,33.1,23.0,66,30.09,7.0,Calm,Calm,-,N/A,,Overcast,0,2014-03-02 13:53:00
9:53 AM,34.0,21.9,61,30.09,7.0,NW,5.8,-,N/A,,Overcast,310,2014-03-02 14:53:00
10:53 AM,35.1,21.9,59,30.07,7.0,Calm,Calm,-,N/A,,Overcast,0,2014-03-02 15:53:00
11:53 AM,37.9,23.0,55,30.05,7.0,Calm,Calm,-,N/A,,Overcast,0,2014-03-02 16:53:00
12:53 PM,35.1,26.1,70,30.03,6.0,WNW,5.8,-,0.00,,Overcast,300,2014-03-02 17:53:00
1:53 PM,36.0,27.0,70,30.04,5.0,West,5.8,-,0.00,Rain,Light Rain,270,2014-03-02 18:53:00
2:21 PM,35.1,30.0,82,30.01,2.5,WNW,5.8,-,0.00,Snow,Light Snow,300,2014-03-02 19:21:00
2:53 PM,36.0,30.9,82,30.02,3.0,NNW,9.2,-,0.02,Rain,Light Rain,340,2014-03-02 19:53:00
3:37 PM,35.1,30.9,85,30.01,2.5,North,4.6,-,0.01,Rain,Light Rain,350,2014-03-02 20:37:00
3:53 PM,35.1,32.0,89,30.03,2.0,North,5.8,-,0.02,Rain,Light Rain,350,2014-03-02 20:53:00
4:08 PM,35.1,32.0,89,30.02,2.0,North,5.8,-,0.01,Rain,Light Rain,360,2014-03-02 21:08:00
4:22 PM,34.0,30.9,89,30.02,2.0,North,8.1,-,0.01,Rain,Light Rain,360,2014-03-02 21:22:00
4:39 PM,34.0,30.9,89,30.01,1.8,North,8.1,-,0.02,Rain,Light Rain,360,2014-03-02 21:39:00
4:53 PM,34.0,30.9,89,30.03,2.0,North,5.8,-,0.03,Rain,Light Rain,360,2014-03-02 21:53:00
5:11 PM,33.1,30.9,92,30.02,1.5,NNW,6.9,-,0.00,Snow,Light Snow,340,2014-03-02 22:11:00
5:53 PM,33.1,30.9,92,30.03,2.0,North,3.5,-,0.01,Rain,Light Rain,10,2014-03-02 22:53:00
6:07 PM,33.1,30.9,92,30.02,3.0,North,4.6,-,0.00,Rain,Light Rain,350,2014-03-02 23:07:00
6:36 PM,33.1,30.0,89,30.02,4.0,North,4.6,-,0.00,,Overcast,10,2014-03-02 23:36:00
6:53 PM,33.1,30.0,89,30.04,4.0,North,4.6,-,0.00,,Overcast,350,2014-03-02 23:53:00
7:53 PM,33.1,28.9,85,30.03,4.0,NNW,3.5,-,N/A,,Overcast,330,2014-03-03 00:53:00
8:53 PM,33.1,28.9,85,30.04,4.0,NW,3.5,-,N/A,,Overcast,320,2014-03-03 01:53:00
9:53 PM,33.1,27.0,78,30.04,7.0,NW,5.8,-,N/A,,Overcast,320,2014-03-03 02:53:00
10:53 PM,33.1,21.9,64,30.02,10.0,North,8.1,-,N/A,,Overcast,350,2014-03-03 03:53:00
11:53 PM,30.9,21.0,67,30.02,8.0,NE,8.1,-,0.00,Snow,Light Snow,40,2014-03-03 04:53:00